Wind_Speed
9 7 7 7 8 9 11 14 17 19 21 24 25 26 28 28 29 29 29 29 29 28 28 29 29 30 30 30 30 30 30 28 28 28 29 28 27 27 28 28 27 27 27
9 7 5 4 5 6 8 9 12 14 17 19 20 22 24 24 24 25 26 29 28 27 27 27 28 28 29 28 28 28 27 27 27 28 28 27 27 27 27 26 25 26 26
9 8 6 5 4 3 4 5 8 9 10 12 13 15 17 18 20 21 22 23 23 24 26 26 26 26 26 26 27 27 26 25 26 26 25 24 23 23 24 24 24 25 26
10 9 7 6 4 3 2 3 4 6 7 7 8 8 9 12 14 16 17 17 18 19 20 20 21 22 22 23 23 24 23 23 22 21 21 21 21 21 21 22 24 25 26
13 12 10 8 6 6 4 4 4 4 3 4 4 4 5 6 8 10 11 12 13 14 15 16 17 16 17 18 17 17 17 18 19 19 19 19 19 19 19 21 22 24 25
13 12 10 9 8 7 6 4 3 3 3 2 2 2 3 3 4 7 8 10 11 12 12 12 13 12 13 14 14 14 15 16 17 17 17 17 16 17 18 20 21 22 23
15 14 12 11 10 9 8 7 6 4 3 3 2 2 2 2 3 4 6 7 9 10 11 11 11 11 11 12 12 13 13 14 15 14 14 15 15 17 18 19 20 21 22
17 16 15 14 12 11 10 8 6 6 5 4 4 4 4 4 4 5 6 7 7 8 8 9 9 9 9 10 10 10 10 11 11 11 12 14 15 16 17 18 19 19 20
19 18 17 16 14 13 12 11 9 8 6 5 4 4 5 5 6 7 7 8 8 9 9 9 9 9 9 8 8 9 9 9 10 11 12 13 14 14 15 16 17 17 18
21 20 18 18 16 15 14 12 11 10 8 6 5 4 5 5 6 6 8 8 9 9 9 9 9 9 9 9 8 8 8 9 10 10 11 12 12 13 13 14 14 15 16
22 21 21 20 19 17 16 14 13 11 10 8 6 5 4 4 5 6 7 8 9 9 9 9 9 8 9 8 8 8 8 9 9 10 10 11 11 12 12 12 12 13 14
22 22 22 21 20 19 18 16 15 13 12 10 9 7 5 3 3 4 5 6 7 8 9 8 8 8 8 8 8 8 8 8 8 8 9 9 9 9 9 10 11 12 12
23 23 22 22 21 20 19 18 17 16 14 12 11 9 7 5 2 1 2 4 6 7 7 7 7 7 6 6 6 6 6 6 6 7 6 7 7 8 8 8 9 10 11
23 23 23 22 22 21 21 20 19 18 16 15 13 12 10 8 6 4 2 2 4 5 5 6 6 6 5 5 5 5 5 5 5 5 4 5 5 6 6 7 8 9 9
22 22 22 22 22 21 21 20 20 19 17 16 15 14 12 10 9 7 6 5 4 5 5 5 4 4 4 4 4 4 3 3 3 2 2 3 4 5 5 6 7 7 8
22 22 22 22 22 22 21 21 20 19 18 17 16 15 14 12 11 10 9 8 7 6 5 4 4 3 3 3 3 3 3 2 1 1 1 2 3 3 4 4 5 6 7
21 22 22 22 21 21 21 21 21 20 20 19 18 17 16 15 13 12 11 10 9 8 7 6 5 5 5 5 5 4 4 3 2 2 2 2 3 3 4 4 5 6 7
21 21 21 21 21 21 21 20 20 20 20 19 19 18 17 16 15 14 13 11 10 10 9 8 8 8 7 6 6 6 5 4 4 4 4 4 4 5 5 5 6 6 7
19 20 20 20 21 20 20 20 19 19 18 18 18 18 17 16 16 15 14 13 12 12 11 11 10 9 9 9 8 7 7 6 6 5 5 5 5 6 6 7 7 7 8
17 18 19 19 19 19 19 19 19 18 17 17 17 17 17 16 16 15 14 14 13 13 12 12 11 11 10 10 10 9 9 8 7 7 7 7 6 6 7 7 8 8 9
15 16 17 17 18 18 18 18 18 17 17 16 16 15 15 15 15 14 14 13 13 12 12 12 11 11 10 10 10 9 8 8 8 7 7 7 7 7 7 8 8 9 10
14 14 15 15 16 16 16 16 16 16 15 15 14 14 14 13 13 12 12 12 11 11 10 10 10 9 9 9 9 9 9 8 8 8 7 7 7 7 8 8 9 9 10
13 13 13 13 14 14 14 14 13 13 13 13 13 12 12 11 11 11 11 10 10 10 9 9 9 8 8 8 8 8 7 7 7 7 7 7 7 7 7 8 8 9 10
13 13 12 12 13 13 12 12 12 11 11 11 11 11 10 10 10 9 9 9 8 8 8 8 8 8 7 7 7 7 6 6 6 6 6 6 7 7 7 8 9 9 10
14 13 13 12 12 12 11 10 10 10 9 9 9 9 9 8 8 8 7 7 7 7 7 7 7 6 6 6 6 6 5 5 5 5 6 6 6 7 8 8 9 10 11
15 15 14 13 12 11 10 10 9 9 8 8 7 7 7 7 7 6 6 6 5 5 5 5 5 5 5 5 5 4 4 4 4 5 5 5 6 7 8 8 9 10 11
Wind_Direction
331 318 299 280 259 248 243 240 241 243 245 246 248 249 249 250 251 251 251 248 249 247 246 247 248 248 246 247 249 250 252 250 249 249 249 249 252 256 259 262 265 270 274
349 347 333 311 282 264 252 247 244 244 245 246 248 248 248 248 248 247 246 245 246 246 245 246 246 247 246 246 246 246 248 249 249 247 247 249 253 256 259 261 266 271 274
5 4 360 350 329 298 261 253 247 249 253 249 249 248 246 244 243 243 245 245 244 242 242 243 245 246 245 244 243 244 245 246 245 245 248 251 254 258 260 263 267 271 275
16 13 9 2 356 337 310 281 263 256 252 244 244 247 243 237 236 238 237 236 235 235 237 240 241 240 242 240 242 244 245 243 243 245 249 252 255 258 261 265 269 273 277
17 19 17 13 10 2 354 332 314 306 286 264 253 239 229 225 225 228 227 228 226 225 230 232 234 235 236 238 241 243 243 244 245 247 249 251 254 259 264 268 272 275 278
17 16 14 10 6 4 4 360 346 323 311 286 257 226 215 210 210 214 216 217 218 222 222 224 228 231 236 237 239 242 243 243 244 245 247 251 258 264 268 273 276 278 280
22 20 20 18 15 11 6 8 16 7 345 328 309 271 255 238 224 224 220 215 217 218 222 225 226 227 232 236 238 241 241 241 244 249 254 260 265 270 274 278 280 282 283
29 29 28 26 24 22 21 17 12 4 350 334 310 293 281 268 251 235 233 228 218 217 219 219 222 222 225 228 232 237 241 246 251 258 263 268 271 275 279 282 284 285 287
34 32 31 28 26 25 23 20 14 4 352 338 319 296 276 266 258 251 245 235 232 232 230 229 228 228 229 232 238 245 253 258 261 265 268 272 276 280 285 288 288 290 291
34 33 33 31 28 26 24 20 16 9 0 350 336 314 290 274 263 256 248 242 237 233 232 230 228 231 235 240 246 251 254 257 261 265 270 274 279 284 288 291 294 296 299
35 35 34 33 31 29 27 22 18 15 12 7 359 343 316 288 270 262 251 241 237 236 237 236 235 236 241 248 252 253 255 258 262 268 275 278 282 287 291 295 299 303 305
35 35 34 33 31 30 29 27 26 24 22 20 17 13 1 329 284 264 249 234 228 228 230 232 236 239 242 245 249 250 255 261 266 272 276 280 284 290 296 301 306 309 312
35 35 34 33 32 32 32 32 32 31 29 27 26 25 23 20 5 294 234 219 213 214 218 221 226 230 237 239 242 246 254 259 262 270 276 280 285 293 301 307 312 317 321
33 34 34 33 32 32 33 33 33 33 33 34 34 34 36 41 47 57 92 162 181 187 196 205 212 217 221 227 233 239 247 254 257 262 276 288 295 302 309 318 322 327 330
32 33 33 33 33 33 33 33 34 35 37 38 39 40 42 46 53 62 73 94 120 141 157 172 184 194 206 211 213 218 222 221 228 248 282 302 308 314 321 329 332 334 337
31 32 32 33 33 34 34 36 38 40 41 41 42 44 47 51 57 65 73 84 97 110 125 138 144 154 162 163 163 167 169 168 180 272 327 342 346 344 344 345 346 347 349
29 30 31 33 34 35 36 37 39 41 42 44 45 47 50 54 59 66 72 78 85 93 103 110 115 122 127 129 133 138 138 129 111 88 68 49 33 22 17 14 10 9 9
28 29 30 32 33 35 36 38 40 42 43 45 47 49 52 55 60 66 72 78 83 87 90 96 102 104 106 108 112 116 115 108 98 90 79 64 53 48 43 37 32 26 21
25 26 28 30 31 33 35 37 39 41 43 46 48 51 53 57 61 66 70 74 77 81 85 90 94 94 95 98 103 104 103 98 91 85 77 71 65 58 50 43 37 31 28
20 22 24 26 28 31 33 35 37 39 42 46 49 52 54 57 61 65 68 71 74 78 82 85 88 90 91 92 94 95 93 90 86 82 78 72 65 56 49 43 38 33 28
11 15 18 21 24 27 29 32 34 37 39 42 46 49 52 54 58 61 66 70 74 76 79 81 84 86 86 87 87 86 86 85 83 79 74 67 61 54 47 41 36 32 27
360 4 8 12 15 19 23 26 30 33 36 39 42 46 49 51 54 57 61 65 69 71 73 75 78 80 81 83 82 82 82 81 78 74 69 63 56 48 42 37 32 27 24
348 351 355 360 4 8 13 17 22 27 31 34 38 41 44 47 50 54 57 60 63 66 69 72 74 77 78 78 78 77 76 73 69 64 59 53 47 40 34 28 24 20 18
333 338 342 345 349 355 1 6 11 16 22 26 30 34 38 41 45 49 53 56 59 63 67 69 71 72 73 73 73 71 68 63 59 55 50 44 39 34 29 24 20 16 13
319 323 327 331 333 338 344 350 356 2 8 14 19 24 28 32 35 40 45 50 55 59 62 64 65 65 66 65 63 60 57 54 51 46 40 35 29 24 19 15 12 9 6
308 310 312 315 318 320 324 330 336 341 347 353 360 4 9 15 20 26 33 38 42 46 49 51 51 49 49 49 48 46 43 40 35 29 24 18 12 7 4 2 0 359 357
Height
5764 5762 5761 5761 5761 5762 5764 5765 5768 5770 5773 5775 5777 5779 5781 5784 5786 5788 5791 5794 5796 5799 5801 5804 5806 5808 5811 5813 5816 5818 5820 5822 5823 5825 5827 5829 5831 5831 5832 5833 5833 5833 5833
5764 5762 5760 5760 5760 5761 5761 5763 5764 5766 5768 5769 5771 5773 5774 5777 5779 5781 5784 5786 5788 5791 5794 5796 5799 5801 5804 5806 5809 5811 5813 5815 5817 5819 5820 5822 5824 5825 5825 5826 5826 5827 5827
5764 5763 5761 5760 5760 5760 5760 5761 5762 5763 5764 5765 5766 5768 5769 5770 5772 5775 5777 5779 5781 5784 5787 5789 5792 5794 5797 5799 5802 5804 5807 5809 5810 5812 5814 5816 5817 5818 5819 5820 5821 5821 5821
5766 5764 5762 5761 5760 5760 5760 5760 5760 5761 5762 5762 5763 5764 5765 5766 5767 5769 5772 5774 5776 5779 5781 5784 5786 5789 5791 5794 5796 5798 5800 5802 5805 5806 5808 5810 5812 5813 5814 5815 5815 5815 5814
5767 5765 5763 5762 5761 5760 5760 5759 5759 5759 5760 5760 5760 5761 5762 5763 5764 5766 5768 5770 5772 5775 5777 5779 5782 5784 5787 5789 5792 5793 5795 5798 5800 5801 5803 5805 5806 5807 5808 5809 5809 5808 5808
5768 5766 5765 5763 5762 5761 5760 5759 5759 5759 5759 5759 5759 5760 5761 5761 5762 5764 5766 5767 5769 5772 5774 5776 5778 5781 5783 5786 5788 5790 5792 5794 5795 5797 5798 5800 5801 5802 5803 5803 5803 5802 5802
5770 5768 5766 5764 5763 5761 5761 5760 5759 5759 5759 5759 5759 5759 5760 5761 5761 5763 5764 5765 5767 5770 5772 5774 5776 5778 5780 5782 5784 5786 5788 5790 5791 5793 5794 5795 5796 5797 5797 5797 5797 5796 5795
5772 5770 5767 5766 5764 5763 5761 5760 5760 5759 5759 5758 5758 5759 5759 5760 5761 5762 5763 5764 5766 5767 5769 5771 5773 5775 5777 5779 5781 5783 5785 5786 5788 5789 5790 5791 5792 5792 5792 5792 5791 5790 5789
5775 5772 5770 5768 5766 5764 5763 5761 5760 5759 5758 5758 5758 5758 5758 5758 5759 5760 5761 5763 5764 5766 5767 5769 5771 5773 5775 5777 5779 5780 5782 5783 5784 5785 5786 5787 5787 5788 5787 5787 5786 5785 5784
5779 5776 5773 5771 5768 5766 5764 5762 5760 5759 5758 5757 5756 5756 5756 5756 5757 5758 5759 5760 5762 5763 5765 5767 5769 5771 5773 5774 5776 5777 5779 5780 5781 5782 5783 5783 5784 5784 5783 5783 5782 5781 5780
5783 5780 5776 5774 5771 5768 5766 5763 5761 5759 5757 5756 5755 5755 5754 5754 5754 5755 5756 5757 5759 5761 5763 5765 5766 5768 5770 5771 5773 5775 5776 5777 5778 5779 5780 5780 5780 5780 5780 5779 5778 5777 5776
5787 5783 5780 5777 5774 5770 5768 5765 5762 5760 5758 5756 5755 5754 5753 5752 5752 5753 5754 5755 5756 5758 5760 5762 5764 5765 5767 5769 5770 5772 5773 5774 5775 5776 5776 5777 5777 5777 5777 5776 5775 5774 5772
5791 5787 5784 5780 5777 5773 5770 5767 5764 5761 5759 5757 5755 5753 5752 5751 5751 5751 5752 5753 5754 5756 5758 5760 5761 5763 5765 5766 5768 5769 5770 5771 5772 5773 5774 5774 5774 5774 5774 5773 5772 5771 5769
5795 5791 5788 5784 5780 5777 5773 5770 5766 5763 5761 5758 5756 5754 5753 5751 5751 5751 5751 5752 5753 5755 5756 5758 5760 5761 5763 5764 5766 5767 5768 5769 5770 5771 5771 5772 5772 5772 5771 5771 5770 5769 5767
5799 5795 5792 5788 5784 5780 5777 5773 5770 5766 5763 5761 5758 5756 5755 5753 5752 5752 5752 5752 5753 5754 5756 5757 5759 5760 5762 5763 5764 5765 5766 5767 5769 5769 5770 5770 5770 5770 5769 5769 5768 5767 5765
5803 5799 5795 5792 5788 5784 5781 5777 5773 5770 5767 5764 5762 5759 5757 5756 5755 5754 5754 5754 5754 5756 5757 5758 5759 5760 5761 5762 5763 5764 5766 5767 5768 5768 5769 5769 5769 5768 5768 5767 5767 5766 5764
5807 5803 5799 5795 5792 5788 5785 5781 5777 5774 5771 5768 5765 5763 5761 5759 5758 5757 5757 5757 5757 5758 5758 5759 5760 5761 5762 5763 5763 5765 5766 5767 5767 5768 5768 5768 5768 5768 5767 5767 5766 5765 5763
5810 5806 5803 5799 5796 5792 5789 5785 5782 5779 5776 5773 5770 5768 5766 5764 5763 5762 5761 5761 5761 5761 5761 5761 5762 5763 5763 5764 5764 5765 5766 5767 5768 5768 5768 5768 5768 5768 5767 5767 5766 5765 5763
5813 5810 5806 5803 5799 5796 5793 5789 5786 5783 5780 5778 5775 5773 5771 5769 5767 5766 5765 5765 5764 5764 5764 5765 5765 5765 5765 5766 5766 5767 5768 5768 5769 5769 5769 5769 5769 5768 5768 5767 5766 5765 5764
5816 5813 5809 5806 5803 5800 5797 5793 5790 5787 5785 5782 5780 5778 5776 5774 5772 5771 5770 5769 5769 5768 5768 5768 5768 5768 5768 5769 5769 5769 5770 5770 5770 5770 5770 5770 5770 5769 5769 5768 5767 5766 5764
5818 5815 5812 5809 5806 5803 5800 5797 5794 5791 5789 5786 5784 5782 5780 5779 5777 5776 5775 5774 5773 5773 5772 5772 5772 5772 5772 5772 5772 5772 5772 5772 5772 5772 5772 5772 5771 5771 5770 5769 5768 5767 5765
5819 5816 5814 5811 5808 5806 5803 5800 5797 5795 5792 5790 5788 5786 5784 5783 5781 5780 5779 5778 5777 5776 5776 5775 5775 5775 5775 5774 5774 5774 5774 5774 5774 5774 5773 5773 5772 5772 5771 5770 5769 5767 5766
5819 5816 5814 5812 5810 5807 5805 5802 5800 5798 5795 5793 5791 5789 5788 5786 5785 5783 5782 5781 5780 5779 5779 5778 5778 5777 5777 5777 5777 5776 5776 5776 5776 5775 5775 5774 5774 5773 5772 5771 5769 5768 5766
5818 5816 5814 5812 5810 5808 5806 5804 5802 5800 5798 5796 5794 5792 5790 5789 5787 5786 5785 5784 5783 5782 5781 5781 5780 5780 5779 5779 5779 5778 5778 5777 5777 5776 5776 5775 5774 5773 5772 5771 5770 5768 5766
5816 5814 5813 5811 5809 5807 5805 5804 5802 5801 5799 5797 5795 5794 5792 5791 5789 5788 5787 5786 5785 5784 5784 5783 5782 5782 5781 5781 5780 5780 5779 5778 5778 5777 5776 5776 5775 5774 5772 5771 5770 5768 5766
5813 5812 5810 5809 5807 5806 5804 5803 5802 5801 5799 5798 5796 5795 5793 5792 5791 5790 5789 5788 5787 5786 5785 5784 5784 5783 5782 5782 5781 5781 5780 5779 5778 5777 5777 5776 5775 5774 5772 5771 5769 5768 5766